Station BDSP1 - 8546252 - Bridesburg, PA Image indicating link to RSS feed of recent meteorological observations for station BDSP1


Conditions at BDSP1 as of
(5:30 am EDT)
0930 GMT on 05/30/2024:
     

Click on the graph icon in the table below to see a time series plot of the last five days of that observation.

5-day plot - Atmospheric Pressure Atmospheric Pressure (PRES):29.95 in
5-day plot - Air Temperature Air Temperature (ATMP): 59.4 °F
5-day plot - Water Temperature Water Temperature (WTMP): 73.4 °F
NOS Water Level Observation Network Water Level
Previous observations
TIME
(EDT)
5-day plot - Wind Direction
WDIR
 
5-day plot - Wind Speed
WSPD
kts
5-day plot - Wind Gust
GST
kts
5-day plot - Wave Height
WVHT
ft
5-day plot - Dominant Wave Period
DPD
sec
5-day plot - Average Wave Period
APD
sec
5-day plot - Mean Wave Direction
MWD
 
5-day plot - Atmospheric Pressure
PRES
in
5-day plot - Pressure Tendency
PTDY
in
5-day plot - Air Temperature
ATMP
°F
5-day plot - Water Temperature
WTMP
°F
5-day plot - Dew Point
DEWP
°F
5-day plot - Salinity
SAL
psu
5-day plot - Visibility
VIS
nmi
5-day plot - Tide (above MLLW)
TIDE
ft
2024-05-30 05:24 am-------29.95- 59.4 73.4----
2024-05-30 05:18 am-------29.94- 59.5 73.6----
2024-05-30 05:12 am-------29.94- 59.7 73.6----
2024-05-30 05:06 am-------29.94- 59.7 73.6----
2024-05-30 05:00 am-------29.94+0.02 59.9 73.6----
2024-05-30 04:54 am-------29.93- 59.5 73.6----
2024-05-30 04:48 am-------29.93-- 73.8----
2024-05-30 04:42 am-------29.93-- 73.8----
2024-05-30 04:36 am-------29.93-- 73.8----
2024-05-30 04:30 am-------29.93- 60.3 73.9----
2024-05-30 04:24 am-------29.93- 60.4 73.9----
2024-05-30 04:18 am-------29.92- 60.4 73.9----
2024-05-30 04:12 am-------29.92- 60.4 74.1----
2024-05-30 04:06 am-------29.92- 60.4 74.1----
2024-05-30 04:00 am-------29.92+0.00 60.6 74.3----
2024-05-30 03:54 am-------29.92- 60.8 74.3----
2024-05-30 03:48 am-------29.92-- 74.3----
2024-05-30 03:42 am-------29.92-- 74.3----
2024-05-30 03:36 am-------29.92-- 74.3----
2024-05-30 03:30 am-------29.91- 61.2 74.3----
2024-05-30 03:24 am-------29.92- 61.5 74.3----
2024-05-30 03:18 am-------29.92- 61.5 74.3----
2024-05-30 03:12 am-------29.92- 61.7 74.3----
2024-05-30 03:06 am-------29.92- 61.7 74.3----
2024-05-30 03:00 am-------29.91-0.02 61.9 74.3----
2024-05-30 02:54 am-------29.91- 61.9 74.3----
2024-05-30 02:48 am-------29.91- 62.1 74.3----
2024-05-30 02:42 am-------29.91- 62.1 74.1----
2024-05-30 02:36 am-------29.92- 62.4 74.1----
2024-05-30 02:30 am-------29.92- 62.4 74.1----
2024-05-30 02:24 am-------29.91- 62.4 74.1----
2024-05-30 02:18 am-------29.91- 62.8 74.1----
2024-05-30 02:12 am-------29.92- 62.8 74.1----
2024-05-30 02:06 am-------29.91- 62.6 73.9----
2024-05-30 02:00 am-------29.92-0.01 62.4 73.8----
2024-05-30 01:54 am-------29.92- 63.1 73.8----
2024-05-30 01:48 am-------29.91-- 73.8----
2024-05-30 01:42 am-------29.92-- 73.8----
2024-05-30 01:36 am-------29.92-- 73.6----
2024-05-30 01:30 am-------29.92- 63.1 73.6----
2024-05-30 01:24 am-------29.92- 63.0 73.6----
2024-05-30 01:18 am-------29.92- 63.1 73.4----
2024-05-30 01:12 am-------29.92- 63.1 73.6----
2024-05-30 01:06 am-------29.92- 63.1 73.6----
2024-05-30 01:00 am-------29.93-0.02 62.8 73.4----
2024-05-30 12:54 am-------29.93- 62.8 73.4----
2024-05-30 12:48 am-------29.93-- 73.4----
2024-05-30 12:42 am-------29.93-- 73.4----
2024-05-30 12:36 am-------29.93-- 73.2----
2024-05-30 12:30 am-------29.93- 63.0 73.2----
2024-05-30 12:24 am-------29.93- 63.5 73.2----
2024-05-30 12:18 am-------29.93- 63.0 73.2----
2024-05-30 12:12 am-------29.93- 63.0 72.9----
2024-05-30 12:06 am-------29.93- 63.0 73.0----
2024-05-30 12:00 am-------29.93+0.00 62.8 73.2----
2024-05-29 11:54 pm-------29.93- 62.8 73.2----
2024-05-29 11:48 pm-------29.92- 62.8 72.9----
2024-05-29 11:42 pm-------29.92- 63.1 73.0----
2024-05-29 11:36 pm-------29.92- 63.1 73.2----
2024-05-29 11:30 pm-------29.92- 63.1 73.0----
2024-05-29 11:24 pm-------29.92- 63.5 72.9----
2024-05-29 11:18 pm-------29.92- 63.3 72.9----
2024-05-29 11:12 pm-------29.92- 63.3 73.0----
2024-05-29 11:06 pm-------29.93- 63.5 72.9----
2024-05-29 11:00 pm-------29.93+0.00 63.3 72.9----
2024-05-29 10:54 pm-------29.92- 63.3 72.9----
2024-05-29 10:48 pm-------29.92- 63.5 72.9----
2024-05-29 10:42 pm-------29.91- 63.7 72.7----
2024-05-29 10:36 pm-------29.92- 63.5 72.7----
2024-05-29 10:30 pm-------29.93- 63.5 72.9----
2024-05-29 10:24 pm-------29.93- 63.5 72.7----
2024-05-29 10:18 pm-------29.94- 63.5 72.9----
2024-05-29 10:12 pm-------29.94- 63.7 72.9----
2024-05-29 10:06 pm-------29.95- 63.9 72.9----
2024-05-29 10:00 pm-------29.95+0.06 63.7 72.7----
2024-05-29 09:54 pm-------29.95- 63.7 72.7----
2024-05-29 09:48 pm-------29.94- 63.9 73.0----
2024-05-29 09:42 pm-------29.95- 64.0 72.9----
2024-05-29 09:36 pm-------29.94- 63.9 72.5----
2024-05-29 09:30 pm-------29.94- 64.0 73.0----
2024-05-29 09:24 pm-------29.93- 64.2 73.0----
2024-05-29 09:18 pm-------29.93- 64.0 72.7----
2024-05-29 09:12 pm-------29.94- 63.7 72.1----
2024-05-29 09:06 pm-------29.94- 64.0 72.3----
2024-05-29 09:00 pm-------29.93+0.06 63.9 72.3----
2024-05-29 08:54 pm-------29.93- 64.2 72.3----
2024-05-29 08:48 pm-------29.93- 64.2 72.3----
2024-05-29 08:42 pm-------29.93- 64.2 72.3----
2024-05-29 08:36 pm-------29.93- 64.0 72.3----
2024-05-29 08:30 pm-------29.92- 64.2 72.1----
2024-05-29 08:24 pm-------29.93- 64.4 72.3----
2024-05-29 08:18 pm-------29.93- 64.6 73.0----
2024-05-29 08:12 pm-------29.92- 64.2 73.6----
2024-05-29 08:06 pm-------29.92- 64.2 73.6----
2024-05-29 08:00 pm-------29.92+0.05 64.0 73.4----
2024-05-29 07:54 pm-------29.91- 63.9 73.0----
2024-05-29 07:48 pm-------29.91-- 72.7----
2024-05-29 07:42 pm-------29.91-- 72.5----
2024-05-29 07:36 pm-------29.91-- 72.5----
2024-05-29 07:30 pm-------29.91- 64.0 72.3----
2024-05-29 07:24 pm-------29.91- 64.0 72.5----
2024-05-29 07:18 pm-------29.92- 64.2 72.5----
2024-05-29 07:12 pm-------29.92- 64.6 72.5----
2024-05-29 07:06 pm-------29.91- 65.7 72.5----
2024-05-29 07:00 pm-------29.89+0.00 71.2 72.7----
2024-05-29 06:54 pm-------29.88- 73.4 72.9----
2024-05-29 06:48 pm-------29.88- 73.6 72.9----
2024-05-29 06:42 pm-------29.88- 73.8 72.9----
2024-05-29 06:36 pm-------29.87- 73.8 72.9----
2024-05-29 06:30 pm-------29.87- 74.5 73.0----
2024-05-29 06:24 pm-------29.87- 74.5 73.2----
2024-05-29 06:18 pm-------29.87- 74.3 73.2----
2024-05-29 06:12 pm-------29.87- 74.5 73.4----
2024-05-29 06:06 pm-------29.87- 74.5 73.4----
2024-05-29 06:00 pm-------29.87-0.03 74.7 73.4----
2024-05-29 05:54 pm-------29.87- 74.8 73.4----
2024-05-29 05:48 pm-------29.87- 75.0 73.4----
2024-05-29 05:42 pm-------29.87- 75.0 73.4----
2024-05-29 05:36 pm-------29.87- 75.4 73.4----
2024-05-29 05:30 pm-------29.87- 75.6 73.6----
2024-05-29 05:24 pm-------29.87- 75.6 73.6----
2024-05-29 05:18 pm-------29.87- 75.4 73.8----
2024-05-29 05:12 pm-------29.88- 75.4 73.6----
2024-05-29 05:06 pm-------29.88- 75.6 73.8----
2024-05-29 05:00 pm-------29.87-0.05 75.7 73.8----
2024-05-29 04:54 pm-------29.88- 75.7 73.9----
2024-05-29 04:48 pm-------29.88-- 73.9----
2024-05-29 04:42 pm-------29.88-- 73.9----
2024-05-29 04:36 pm-------29.88-- 74.1----
2024-05-29 04:30 pm-------29.88- 75.6 74.1----
2024-05-29 04:24 pm-------29.88- 75.6 74.1----
2024-05-29 04:18 pm-------29.88- 75.9 74.1----
2024-05-29 04:12 pm-------29.88- 76.3 74.1----
2024-05-29 04:06 pm-------29.88- 76.1 74.3----
2024-05-29 04:00 pm-------29.88-0.06 75.7 74.3----
2024-05-29 03:54 pm-------29.89- 76.1 74.5----
2024-05-29 03:48 pm-------29.89- 75.7 74.5----
2024-05-29 03:42 pm-------29.89- 75.6 74.5----
2024-05-29 03:36 pm-------29.89- 74.8 74.5----
2024-05-29 03:30 pm-------29.89- 75.4 74.5----
2024-05-29 03:24 pm-------29.89- 75.4 74.5----
2024-05-29 03:18 pm-------29.89- 75.7 74.5----
2024-05-29 03:12 pm-------29.90- 75.6 74.5----
2024-05-29 03:06 pm-------29.90- 75.0 74.5----
2024-05-29 03:00 pm-------29.90- 74.7 74.3----
2024-05-29 02:54 pm-------29.90- 74.5 74.3----
2024-05-29 02:48 pm-------29.90- 73.9 74.5----
2024-05-29 02:42 pm-------29.90- 73.9 74.3----
2024-05-29 02:36 pm-------29.91- 73.9 74.3----
2024-05-29 02:30 pm-------29.91- 74.3 74.3----
2024-05-29 02:24 pm-------29.91- 73.6 74.3----
2024-05-29 02:18 pm-------29.92- 73.4 74.1----
2024-05-29 02:12 pm-------29.92- 73.8 74.3----
2024-05-29 02:06 pm-------29.92- 73.6 74.1----
2024-05-29 02:00 pm-------29.92-0.04 73.0 74.1----
2024-05-29 01:54 pm-------29.92- 73.0 74.1----
2024-05-29 01:48 pm-------29.93- 72.7 73.9----
2024-05-29 01:42 pm-------29.93- 72.7 73.9----
2024-05-29 01:36 pm-------29.93- 72.9 73.8----
2024-05-29 01:30 pm-------29.93- 72.5 73.8----
2024-05-29 01:24 pm-------29.93- 72.3 73.4----
2024-05-29 01:18 pm-------29.93-- 73.4----
2024-05-29 01:12 pm-------29.93-- 73.4----
2024-05-29 01:06 pm-------29.94-- 73.4----
2024-05-29 01:00 pm-------29.95+0.01 72.1 73.4----
2024-05-29 12:54 pm-------29.95- 71.8 73.2----
2024-05-29 12:48 pm---------- 73.2----
2024-05-29 12:42 pm---------- 73.2----
2024-05-29 12:36 pm---------- 73.2----
2024-05-29 12:30 pm--------- 71.2-----
2024-05-29 12:24 pm--------- 71.4-----
2024-05-29 12:18 pm--------- 71.4-----
2024-05-29 12:12 pm--------- 71.1-----
2024-05-29 12:06 pm--------- 70.9-----
2024-05-29 12:00 pm--------- 70.9-----
2024-05-29 11:54 am--------- 71.2-----
2024-05-29 11:48 am-------29.97-- 72.9----
2024-05-29 11:42 am-------29.97-- 72.9----
2024-05-29 11:36 am-------29.97-- 72.7----
2024-05-29 11:30 am---------- 72.9----
2024-05-29 11:24 am---------- 72.7----
2024-05-29 11:18 am-------29.97- 70.0 72.7----
2024-05-29 11:12 am-------29.97- 69.4 72.5----
2024-05-29 11:06 am-------29.97- 69.3 72.5----
2024-05-29 11:00 am-------29.97+0.04 69.4 72.7----
2024-05-29 10:54 am-------29.96- 69.3 72.5----
2024-05-29 10:48 am-------29.96-- 72.5----
2024-05-29 10:42 am-------29.96-- 72.5----
2024-05-29 10:36 am-------29.96-- 72.3----
2024-05-29 10:30 am-------29.95- 68.9 72.3----
2024-05-29 10:24 am-------29.95- 68.9 72.5----
2024-05-29 10:18 am-------29.94- 68.9 72.5----
2024-05-29 10:12 am-------29.94- 68.7 72.1----
2024-05-29 10:06 am-------29.94- 68.9 72.1----
2024-05-29 10:00 am-------29.94+0.01 68.4 72.1----
2024-05-29 09:54 am-------29.93- 68.7 72.1----
2024-05-29 09:48 am-------29.93- 68.0 72.1----
2024-05-29 09:42 am-------29.93- 67.8 72.1----
2024-05-29 09:36 am-------29.92- 68.0 72.1----
2024-05-29 09:30 am-------29.92- 67.6 72.1----
2024-05-29 09:24 am-------29.92- 67.5 72.1----
2024-05-29 09:18 am-------29.92- 66.9 72.1----
2024-05-29 09:12 am-------29.93- 66.4 72.0----
2024-05-29 09:06 am-------29.93- 66.4 71.8----
2024-05-29 09:00 am-------29.93+0.02 66.4 72.0----
2024-05-29 08:54 am-------29.93- 66.2 71.8----
2024-05-29 08:48 am-------29.93- 66.0 72.0----
2024-05-29 08:42 am-------29.93- 65.8 71.8----
2024-05-29 08:36 am-------29.93- 66.0 71.6----
2024-05-29 08:30 am-------29.93- 65.5 71.6----
2024-05-29 08:24 am-------29.93- 66.0 71.4----
2024-05-29 08:18 am-------29.93- 65.5 71.4----
2024-05-29 08:12 am-------29.93- 65.7 71.4----
2024-05-29 08:06 am-------29.93- 65.7 71.4----
2024-05-29 08:00 am-------29.93+0.04 65.5 71.4----
2024-05-29 07:54 am-------29.93- 65.8 71.2----
2024-05-29 07:48 am-------29.93-- 71.4----
2024-05-29 07:42 am-------29.93-- 71.8----
2024-05-29 07:36 am-------29.93-- 72.1----
2024-05-29 07:30 am-------29.93- 65.7 72.1----
2024-05-29 07:24 am-------29.93- 66.0 72.1----
2024-05-29 07:18 am-------29.93- 65.7 71.8----
2024-05-29 07:12 am-------29.93- 65.7 71.6----
2024-05-29 07:06 am-------29.93- 65.7 71.6----
2024-05-29 07:00 am-------29.93+0.05 65.7 71.4----
2024-05-29 06:54 am-------29.92- 65.7 71.4----
2024-05-29 06:48 am-------29.92- 64.9 71.4----
2024-05-29 06:42 am-------29.92- 64.2 71.4----
2024-05-29 06:36 am-------29.92- 64.2 71.4----
2024-05-29 06:30 am-------29.92- 64.4 71.6----
2024-05-29 06:24 am-------29.92- 64.0 71.6----
2024-05-29 06:18 am-------29.92- 63.9 71.6----
2024-05-29 06:12 am-------29.91- 63.9 71.6----
2024-05-29 06:06 am-------29.91- 63.5 71.8----
2024-05-29 06:00 am-------29.91+0.03 63.3 71.8----
2024-05-29 05:54 am-------29.91- 63.5 72.0----